Flag for Norway Weather past 2 weeks in Orkanger/Fannrem, Norway

Now
31 °F

Chilly.


Feels Like: 27 °F
Forecast: 24 / 39 °F
Wind: 3 mph from South

Location: Vinjeora Ii

Current Time: Mar 3, 2015 at 8:46:52 AM

Latest Report: Mar 3, 2015 at 8:00 AM


Visibility: N/A

Pressure: 29.41 "Hg

Humidity: 56%

Dew point: 17 °F

Location of Orkanger/FannremLocation

Historic Weather in Orkanger/Fannrem — Graph

°F

Orkanger/Fannrem temperature yesterday

Maximum temperature yesterday: 45 °F (at 11:00 AM)
Minimum temperature yesterday: 29 °F (at 7:00 PM)
Average temperature yesterday: 38 °F

Past Weeks' High & Low Weather Summary

 TemperatureHumidityPressure
High49 °F (Feb 28, 8:00 PM)93% (Feb 18, 5:00 AM)30.03 "Hg (Feb 18, 5:00 AM)
Low29 °F (Feb 22, 8:00 AM)31% (Feb 17, 11:00 AM)28.64 "Hg (Mar 1, 6:00 PM)
Average40 °F54%29.29 "Hg
* Reported Feb 16 7:00 AM — Mar 3 7:00 AM, Orkanger/Fannrem, Weather by CustomWeather, © 2015

Note: Actual official high and low records may vary slightly from our data, if they occured in-between our weather recording intervals... More about our weather records

Advertising

Orkanger/Fannrem weather history for previous 24 hours

 ConditionsComfort  
Time TempWeatherWind HumidityBarometerVisibility
7:00 AM
Tue, Mar 3
31 °FChilly.3 mph56%29.41 "HgN/A
6:00 AM30 °FChilly.5 mph58%29.41 "HgN/A
5:00 AM30 °FChilly.5 mph56%29.38 "HgN/A
4:00 AM31 °FChilly.3 mph55%29.38 "HgN/A
3:00 AM30 °FChilly.2 mph59%29.38 "HgN/A
2:00 AM30 °FChilly.3 mph56%29.35 "HgN/A
1:00 AM31 °FChilly.2 mph60%29.35 "HgN/A
12:00 AM31 °FChilly.3 mph64%29.35 "HgN/A
11:00 PM
Mon, Mar 2
32 °FChilly.3 mph67%29.32 "HgN/A
9:00 PM32 °FChilly.6 mph76%29.29 "HgN/A
8:00 PM30 °FChilly.2 mph90%29.26 "HgN/A
7:00 PM29 °FChilly.1 mph90%29.23 "HgN/A
6:00 PM31 °FChilly.No wind90%29.21 "HgN/A
5:00 PM33 °FChilly.1 mph86%29.18 "HgN/A
4:00 PM35 °FChilly.1 mph82%29.18 "HgN/A
3:00 PM38 °FChilly.2 mph79%29.12 "HgN/A
2:00 PM38 °FChilly.1 mph83%29.09 "HgN/A
1:00 PM36 °FChilly.5 mph81%29.06 "HgN/A
12:00 PM40 °FChilly.5 mph68%29.00 "HgN/A
11:00 AM45 °FCool.3 mph40%28.94 "HgN/A
10:00 AM45 °FCool.5 mph41%28.91 "HgN/A
9:00 AM45 °FQuite cool.3 mph39%28.88 "HgN/A
8:00 AM44 °FQuite cool.5 mph41%28.88 "HgN/A
Weather by CustomWeather, © 2015

See weather overviewHow to use our weather pages